Weather History for KASW - October, 2013

Change the Weather History Date:

Tuesday, October 15, 2013

  Actual Average (KFWA) Record (KFWA)
Temperature  
Mean Temperature 54 °F 53 °F  
Max Temperature 64 °F 64 °F 88 °F (1897)
Min Temperature 44 °F 42 °F 28 °F (2006)
Degree Days  
Heating Degree Days 11 12  
Month to date heating degree days 154  
Since 1 July heating degree days 270  
Cooling Degree Days 0 0  
Month to date cooling degree days 8  
Year to date cooling degree days 808  
Growing Degree Days 4 (Base 50)    
Moisture  
Dew Point 52 °F    
Average Humidity 89    
Maximum Humidity 100    
Minimum Humidity 82    
Precipitation  
Precipitation 0.00 in 0.09 in 0.88 in (2008)
Month to date precipitation 1.42  
Year to date precipitation 31.06  
Snow  
Snow 0.00 in 0.00 in 0.00 in (2002)
Month to date snowfall 0.1  
Since 1 July snowfall 0.1  
Since 1 September snowfall 0.1  
Snow Depth -    
Sea Level Pressure  
Sea Level Pressure 30.02 in    
Wind  
Wind Speed 5 mph (SSE)    
Max Wind Speed 10 mph    
Max Gust Speed 17 mph    
Visibility 8 miles    
Events Rain    
T = Trace of Precipitation, MM = Missing Value Source: NWS Daily Summary

Daily Weather History Graph

Daily Weather History Graph

Search for Another Location

Airport or City:

Trip Planner

Search our weather history database for the weather conditions in past years. The results will help you decide how hot, cold, wet, or windy it might be!

Date:

Astronomy

Oct. 15, 2013 Rise Set
Actual Time 7:55 AM EDT 7:02 PM EDT
Civil Twilight 7:27 AM EDT 7:29 PM EDT
Nautical Twilight 6:55 AM EDT 8:01 PM EDT
Astronomical Twilight 6:23 AM EDT 8:33 PM EDT
Moon 5:08 PM EDT (10/15) 4:15 AM EDT (10/15)
Length of Visible Light 12h 02m
Length of Day
11h 06m
Waxing Gibbous, 87% of the Moon is Illuminated
Oct 15
Waxing Gibbous
Oct 18
Full
Oct 26
Last Quarter
Nov 3
New
Nov 10
First Quarter

Hourly Weather History & Observations

Time (EDT) Temp. Windchill Dew Point Humidity Pressure Visibility Wind Dir Wind Speed Gust Speed Precip Events Conditions
12:15 AM 50.0 °F - 44.6 °F 82% 30.24 in 10.0 mi ESE 5.8 mph - N/A   Clear
12:35 AM 50.0 °F - 44.6 °F 82% 30.23 in 10.0 mi ESE 6.9 mph - N/A   Clear
12:55 AM 48.2 °F - 44.6 °F 87% 30.22 in 10.0 mi ESE 6.9 mph - N/A   Clear
1:15 AM 48.2 °F - 44.6 °F 87% 30.20 in 10.0 mi ESE 6.9 mph - N/A   Clear
1:35 AM 48.2 °F - 44.6 °F 87% 30.19 in 10.0 mi ESE 8.1 mph - N/A   Clear
1:55 AM 48.2 °F - 44.6 °F 87% 30.18 in 10.0 mi ESE 5.8 mph - N/A   Clear
2:15 AM 48.2 °F - 44.6 °F 87% 30.19 in 10.0 mi ESE 5.8 mph - N/A   Clear
2:35 AM 46.4 °F 43.5 °F 42.8 °F 87% 30.18 in 10.0 mi ESE 5.8 mph - N/A   Clear
2:55 AM 46.4 °F 45.2 °F 42.8 °F 87% 30.18 in 10.0 mi ESE 3.5 mph - N/A   Clear
3:15 AM 46.4 °F 45.2 °F 42.8 °F 87% 30.17 in 10.0 mi ESE 3.5 mph - N/A   Clear
3:35 AM 44.6 °F 41.4 °F 42.8 °F 93% 30.16 in 10.0 mi ESE 5.8 mph - N/A   Clear
3:55 AM 44.6 °F 41.4 °F 42.8 °F 93% 30.15 in 10.0 mi ESE 5.8 mph - N/A   Clear
4:15 AM 44.6 °F - 42.8 °F 93% 30.15 in 10.0 mi Calm Calm - N/A   Clear
4:35 AM 44.6 °F - 41.0 °F 87% 30.14 in 10.0 mi Calm Calm - N/A   Clear
4:55 AM 44.6 °F 43.1 °F 41.0 °F 87% 30.13 in 10.0 mi ESE 3.5 mph - N/A   Clear
5:15 AM 44.6 °F 43.1 °F 42.8 °F 93% 30.13 in 10.0 mi ESE 3.5 mph - N/A   Clear
5:35 AM 44.6 °F 43.1 °F 42.8 °F 93% 30.13 in 10.0 mi ESE 3.5 mph - N/A   Clear
5:55 AM 46.4 °F 44.3 °F 42.8 °F 87% 30.12 in 10.0 mi ESE 4.6 mph - N/A   Clear
6:15 AM 46.4 °F 44.3 °F 42.8 °F 87% 30.11 in 10.0 mi ESE 4.6 mph - N/A   Clear
6:35 AM 46.4 °F 44.3 °F 42.8 °F 87% 30.11 in 10.0 mi ESE 4.6 mph - N/A   Clear
6:55 AM 46.4 °F 44.3 °F 42.8 °F 87% 30.11 in 10.0 mi ESE 4.6 mph - N/A   Clear
7:15 AM 46.4 °F 43.5 °F 44.6 °F 93% 30.10 in 10.0 mi ESE 5.8 mph - N/A   Clear
7:35 AM 46.4 °F 44.3 °F 44.6 °F 93% 30.09 in 10.0 mi ESE 4.6 mph - N/A   Clear
7:55 AM 46.4 °F 45.2 °F 44.6 °F 93% 30.09 in 10.0 mi ESE 3.5 mph - N/A   Clear
8:15 AM 46.4 °F 43.5 °F 44.6 °F 93% 30.08 in 10.0 mi ESE 5.8 mph - N/A   Clear
8:35 AM 46.4 °F 44.3 °F 44.6 °F 93% 30.08 in 10.0 mi SE 4.6 mph - N/A   Clear
8:55 AM 48.2 °F - 46.4 °F 93% 30.07 in 10.0 mi ESE 5.8 mph - N/A   Clear
9:15 AM 50.0 °F - 46.4 °F 87% 30.06 in 7.0 mi ESE 8.1 mph - N/A   Clear
9:35 AM 50.0 °F - 48.2 °F 94% 30.06 in 7.0 mi SE 5.8 mph - N/A   Clear
9:55 AM 51.8 °F - 48.2 °F 88% 30.07 in 7.0 mi SSE 3.5 mph - N/A   Clear
10:15 AM 51.8 °F - 50.0 °F 94% 30.06 in 7.0 mi SE 4.6 mph - N/A   Clear
10:35 AM 53.6 °F - 50.0 °F 88% 30.05 in 7.0 mi SE 4.6 mph - N/A   Scattered Clouds
10:55 AM 53.6 °F - 51.8 °F 94% 30.04 in 7.0 mi SE 4.6 mph - N/A   Scattered Clouds
11:15 AM 53.6 °F - 51.8 °F 94% 30.03 in 7.0 mi SE 4.6 mph - N/A   Scattered Clouds
11:35 AM 55.4 °F - 51.8 °F 88% 30.04 in 7.0 mi Calm Calm - N/A   Scattered Clouds
11:55 AM 55.4 °F - 51.8 °F 88% 30.03 in 7.0 mi SE 5.8 mph - N/A   Mostly Cloudy
12:15 PM 57.2 °F - 53.6 °F 88% 30.03 in 7.0 mi SSE 3.5 mph - N/A   Overcast
12:35 PM 57.2 °F - 53.6 °F 88% 30.02 in 7.0 mi SE 6.9 mph - N/A   Mostly Cloudy
12:55 PM 59.0 °F - 53.6 °F 82% 30.00 in 7.0 mi SE 5.8 mph - N/A   Mostly Cloudy
1:15 PM 60.8 °F - 55.4 °F 82% 29.99 in 7.0 mi SE 5.8 mph - N/A   Mostly Cloudy
1:35 PM 60.8 °F - 55.4 °F 82% 29.98 in 7.0 mi SSE 5.8 mph - N/A   Mostly Cloudy
1:55 PM 60.8 °F - 55.4 °F 82% 29.98 in 7.0 mi South 4.6 mph - N/A Rain Light Rain
2:15 PM 60.8 °F - 55.4 °F 82% 29.96 in 7.0 mi SSE 4.6 mph - N/A   Mostly Cloudy
2:35 PM 60.8 °F - 55.4 °F 82% 29.95 in 5.0 mi SSE 4.6 mph - N/A Rain Light Rain
2:55 PM 60.8 °F - 57.2 °F 88% 29.94 in 5.0 mi SE 5.8 mph - N/A   Mostly Cloudy
3:15 PM 60.8 °F - 57.2 °F 88% 29.93 in 5.0 mi SE 3.5 mph - N/A   Mostly Cloudy
3:35 PM 62.6 °F - 57.2 °F 82% 29.92 in 7.0 mi SE 6.9 mph - N/A   Overcast
3:55 PM 62.6 °F - 59.0 °F 88% 29.91 in 7.0 mi SSE 5.8 mph - N/A   Overcast
4:15 PM 62.6 °F - 59.0 °F 88% 29.91 in 10.0 mi SSE 5.8 mph - N/A   Overcast
4:35 PM 62.6 °F - 59.0 °F 88% 29.91 in 10.0 mi South 4.6 mph - N/A   Overcast
4:55 PM 62.6 °F - 59.0 °F 88% 29.90 in 10.0 mi South 4.6 mph - N/A   Overcast
5:15 PM 62.6 °F - 59.0 °F 88% 29.90 in 10.0 mi South 5.8 mph - N/A   Overcast
5:35 PM 64.4 °F - 59.0 °F 83% 29.90 in 10.0 mi South 3.5 mph - N/A   Overcast
5:55 PM 64.4 °F - 59.0 °F 83% 29.89 in 10.0 mi South 3.5 mph - N/A   Overcast
6:15 PM 64.4 °F - 59.0 °F 83% 29.89 in 10.0 mi South 4.6 mph - N/A   Overcast
6:35 PM 64.4 °F - 59.0 °F 83% 29.88 in 10.0 mi South 4.6 mph - N/A   Overcast
6:55 PM 62.6 °F - 59.0 °F 88% 29.88 in 7.0 mi SSW 5.8 mph - N/A Rain Light Rain
7:15 PM 62.6 °F - 59.0 °F 88% 29.88 in 7.0 mi South 5.8 mph - N/A Rain Rain
7:35 PM 62.6 °F - 59.0 °F 88% 29.87 in 10.0 mi South 3.5 mph - N/A   Overcast
7:55 PM 62.6 °F - 59.0 °F 88% 29.87 in 3.0 mi South 6.9 mph - N/A Rain Heavy Rain
8:15 PM 60.8 °F - 60.8 °F 100% 29.87 in 4.0 mi SSW 5.8 mph 17.3 mph N/A   Drizzle
8:35 PM 60.8 °F - 60.8 °F 100% 29.88 in 3.0 mi SSW 9.2 mph 17.3 mph N/A   Drizzle
8:55 PM 60.8 °F - 60.8 °F 100% 29.88 in 4.0 mi SSW 6.9 mph 17.3 mph N/A Rain Rain
9:15 PM 60.8 °F - 60.8 °F 100% 29.88 in 7.0 mi SW 8.1 mph - N/A   Drizzle
9:35 PM 62.6 °F - 60.8 °F 94% 29.88 in 7.0 mi SSW 8.1 mph - N/A   Overcast
9:55 PM 62.6 °F - 60.8 °F 94% 29.88 in 10.0 mi SW 6.9 mph - N/A   Overcast
10:15 PM 62.6 °F - 60.8 °F 94% 29.89 in 10.0 mi SW 4.6 mph - N/A   Overcast
10:35 PM 62.6 °F - 60.8 °F 94% 29.89 in 10.0 mi SW 8.1 mph - N/A   Overcast
10:55 PM 62.6 °F - 60.8 °F 94% 29.89 in 10.0 mi SW 6.9 mph - N/A   Overcast
11:15 PM 62.6 °F - 60.8 °F 94% 29.88 in 10.0 mi SW 8.1 mph - N/A   Overcast
11:35 PM 62.6 °F - 60.8 °F 94% 29.89 in 10.0 mi WSW 10.4 mph - N/A   Overcast
11:55 PM 62.6 °F - 60.8 °F 94% 29.89 in 10.0 mi SW 9.2 mph - N/A   Overcast